Location: Unspecified
(0.0000°N, 0.0000°E)
Time: 09:12:52
(UTC+00:00)

Explorer 11/Cluster Stage 4 - Pass Details

Date: 20 July 2020
Orbit: 467 x 1259 km, 28.8° (Epoch: 03 August)

Event Time Altitude Azimuth Distance (km) Brightness Sun altitude
Rises 18:54:16 0° 252° (WSW) 4,131 11.2 -11.2°
Reaches altitude 10° 18:59:05 10° 228° (SW) 3,224 10.1 -12.3°
Maximum altitude 19:02:47 14° 201° (SSW) 2,964 9.5 -13.2°
Drops below altitude 10° 19:06:30 10° 174° (S) 3,208 9.4 -14.0°
Enters shadow 19:09:19 - 158° (SSE) 3,675 9.6 -14.7°
Sets 19:11:17 0° 149° (SSE) 4,093 - -15.2°
